Location: Gilevgi
(36.8751°N, 30.0581°E)
Time: 10:04:19
(UTC+00:00)

IRS-P3 - Pass Details

Date: 23 March 2026
Orbit: 810 x 816 km, 99.0° (Epoch: 20 April)

Event Time Altitude Azimuth Distance (km) Brightness Sun altitude
Rises 17:02:57 0° 190° (S) 3,326 7.3 -10.5°
Reaches altitude 10° 17:05:31 10° 200° (SSW) 2,398 6.7 -11.0°
Maximum altitude 17:10:13 32° 262° (W) 1,370 6.1 -12.0°
Drops below altitude 10° 17:14:57 10° 325° (NW) 2,410 7.3 -12.9°
Sets 17:17:33 0° 336° (NNW) 3,345 7.9 -13.4°
